Regional Weather Roundup
Issued by NWS Green Bay, WI

Home | Current Version | Previous Version | Graphics & Text | Print | Product List | Glossary Off
Versions: 1 2 3 4 5 6 7 8 9 10 11 12 13 14 15 16 17 18 19 20 21 22 23 24 25 26 27 28 29 30 31 32 33 34 35 36 37 38 39 40 41 42 43 44 45 46 47 48 49 50

000
ASUS43 KGRB 010759
RWRGRB

NORTH-CENTRAL AND NORTHEAST WISCONSIN REGIONAL WEATHER ROUNDUP
NATIONAL WEATHER SERVICE GREEN BAY WI
300 AM CDT WED OCT 01 2014

WIZ005-009-010>012-018-019-010900-
NORTH CENTRAL WISCONSIN

CITY           SKY/WX    TMP DP  RH WIND       PRES   REMARKS
IRONWOOD       NOT AVBL
MANITOWISH WTR NOT AVBL
ARBOR VITAE    NOT AVBL
EAGLE RIVER    NOT AVBL
LAND O LAKES   NOT AVBL
RHINELANDER    CLOUDY    43  42  97 SE9       30.01S
PHILLIPS       CLOUDY    44  42  93 S10       29.98R
ANTIGO         NOT AVBL
TOMAHAWK       NOT AVBL
MERRILL        NOT AVBL
$$

WIZ013-073-010900-
NORTHEAST WISCONSIN

CITY           SKY/WX    TMP DP  RH WIND       PRES   REMARKS
IRON MOUNTAIN  CLOUDY    47  46  97 SE5       30.01F FOG
MARINETTE      NOT AVBL
$$

WIZ017-030-035>037-045-010900-
CENTRAL WISCONSIN

CITY           SKY/WX    TMP DP  RH WIND       PRES   REMARKS
MEDFORD        NOT AVBL
WAUSAU         CLOUDY    44  42  93 SE12      30.00S
MOSINEE        CLOUDY    43  43 100 SE9       30.01F FOG
MARSHFIELD     CLOUDY    46  43  89 SE14      30.00S
WISC RAPIDS    CLOUDY    47  43  86 SE10      30.01F
STEVENS POINT  NOT AVBL
WAUPACA        NOT AVBL
SHAWANO        CLOUDY    48  46  91 CALM      30.03F FOG
CLINTONVILLE   CLOUDY    45  45 100 CALM      30.03S FOG
$$

WIZ038-039-048-051-010900-
FOX VALLEY

CITY           SKY/WX    TMP DP  RH WIND       PRES   REMARKS
NWS GREEN BAY  CLOUDY    48  47  96 CALM      30.03S FOG
APPLETON       NOT AVBL
OSHKOSH        CLOUDY    50  49  96 SE3       30.02S FOG
FOND DU LAC    LGT RAIN  48  46  93 CALM      30.03R FOG
$$

WIZ022-050-052-010900-
EAST CENTRAL WISCONSIN

CITY           SKY/WX    TMP DP  RH WIND       PRES   REMARKS
STURGEON BAY   NOT AVBL
MANITOWOC      NOT AVBL
SHEBOYGAN      NOT AVBL
$$

LMZ563-521-522-541>543-010900-
LAKESHORE

STATION/POSITION TIME  TEMP    WIND        PRES    VSBY  WAVE
                       AIR SEA DIR/SP/G                  HT/PER
                 (UTC) (F)     (DEG/KT/KT) (MB)    (MI)  (FT/S)
SHEBOYGAN LKSHOR 0700   54 54  120/ 12/ 13 1017.3F
KEWAUNEE LKSHORE 0700   51     150/  7/ 10 1016.3F
NORTHPORT PIER   0700   55     120/  8/ 11 1017.3F
N MID LAKE BUOY  0700   54 58  160/ 10/ 12 1018.1R         1/ 4
S GREEN BAY BUOY 0700   53     VRB  8/ 12  1018.1F
CHAMBERS ISLAND  0700   52     110/  1/  3 1017.6S
MENOMINEE LKSHOR 0700   53     160/  8/  9 1017.7F
$$



USA.gov is the U.S. government's official web portal to all federal, state and local government web resources and services.